Weather History for Fairbanks, AK

Change the Weather History Date:

Thursday, June 27, 2013

  Actual Average Record
Temperature  
Mean Temperature 75 °F 63 °F  
Max Temperature 83 °F 74 °F 89 °F (1938)
Min Temperature 66 °F 52 °F 34 °F (1923)
Degree Days  
Heating Degree Days 0 3  
Month to date heating degree days 71 150  
Since 1 June heating degree days 71 150  
Since 1 July heating degree days 14876 13659  
Cooling Degree Days 10 2  
Month to date cooling degree days 115 15  
Year to date cooling degree days 128 16  
Since 1 June cooling degree days 115 15  
Growing Degree Days 25 (Base 50)    
Moisture  
Dew Point 58 °F    
Average Humidity 56    
Maximum Humidity 73    
Minimum Humidity 33    
Precipitation  
Precipitation T in 0.06 in 1.27 in (1981)
Month to date precipitation 0.43 1.19  
Year to date precipitation 2.77 3.35  
Snow  
Snow 0.00 in 0.00 in 0.00 in (2002)
Month to date snowfall 0.0 0.0  
Since 1 June snowfall 0.0 0.0  
Since 1 July snowfall 68.6 65.0  
Snow Depth 0.00 in    
Sea Level Pressure  
Sea Level Pressure 29.85 in    
Wind  
Wind Speed 6 mph (WSW)    
Max Wind Speed 15 mph    
Max Gust Speed 21 mph    
Visibility 6 miles    
Events Rain    
T = Trace of Precipitation, MM = Missing Value Source: NWS Daily Summary

Daily Weather History Graph

Daily Weather History Graph

Search for Another Location

Airport:

Trip Planner

Search our weather history database for the weather conditions in past years. The results will help you decide how hot, cold, wet, or windy it might be!

Date:

Astronomy

Jun. 27, 2013 Rise Set
Actual Time 3:05 AM AKDT 12:42 AM AKDT
Civil Twilight Sun does not rise Sun does not rise
Nautical Twilight Sun does not rise Sun does not rise
Astronomical Twilight Sun does not rise Sun does not rise
Moon 12:30 AM AKDT (6/27) 11:10 AM AKDT (6/27)
Length of Visible Light 24h 00m
Length of Day
21h 37m
Waning Gibbous, 75% of the Moon is Illuminated
Jun 27
Waning Gibbous
Jun 29
Last Quarter
Jul 7
New
Jul 15
First Quarter
Jul 22
Full

Hourly Weather History & Observations

Time (AKDT) Temp. Heat Index Dew Point Humidity Pressure Visibility Wind Dir Wind Speed Gust Speed Precip Events Conditions
12:53 AM 73.4 °F - 57.2 °F 57% 29.70 in 10.0 mi Calm Calm - N/A   Mostly Cloudy
1:53 AM 69.8 °F - 57.2 °F 64% 29.71 in 10.0 mi Calm Calm - N/A   Mostly Cloudy
2:53 AM 69.8 °F - 57.2 °F 64% 29.73 in 10.0 mi WSW 3.5 mph - N/A   Mostly Cloudy
3:53 AM 66.2 °F - 57.2 °F 73% 29.74 in 10.0 mi South 5.8 mph - N/A   Mostly Cloudy
4:53 AM 71.6 °F - 55.4 °F 57% 29.78 in 10.0 mi WSW 8.1 mph - N/A   Mostly Cloudy
5:14 AM 73.4 °F - 55.4 °F 53% 29.77 in 2.0 mi West 12.7 mph - N/A   Smoke
5:53 AM 71.1 °F - 57.9 °F 63% 29.79 in 2.0 mi Variable 6.9 mph - N/A Rain Light Rain
6:39 AM 68.0 °F - 59.0 °F 73% 29.81 in 1.0 mi Variable 4.6 mph - N/A   Smoke
6:53 AM 69.1 °F - 60.1 °F 73% 29.83 in 1.0 mi WSW 10.4 mph - N/A   Smoke
7:53 AM 69.8 °F - 59.0 °F 68% 29.83 in 1.0 mi West 3.5 mph - N/A   Smoke
8:53 AM 68.0 °F - 59.0 °F 73% 29.85 in 1.0 mi SSW 5.8 mph - N/A   Smoke
9:53 AM 70.0 °F - 59.0 °F 68% 29.87 in 1.0 mi SW 5.8 mph - N/A   Smoke
10:53 AM 73.4 °F - 59.0 °F 61% 29.87 in 1.0 mi WSW 5.8 mph - N/A   Smoke
10:56 AM 73.4 °F - 59.0 °F 61% 29.87 in 2.0 mi WSW 5.8 mph - N/A   Smoke
11:16 AM 73.4 °F - 57.2 °F 57% 29.87 in 3.0 mi WSW 8.1 mph - N/A   Smoke
11:53 AM 75.2 °F - 57.2 °F 53% 29.88 in 3.0 mi Variable 5.8 mph - N/A   Smoke
12:53 PM 77.0 °F - 57.2 °F 50% 29.89 in 4.0 mi WSW 11.5 mph 19.6 mph N/A   Smoke
1:53 PM 80.6 °F 81.1 °F 59.0 °F 48% 29.90 in 6.0 mi WNW 10.4 mph - N/A   Smoke
2:53 PM 80.6 °F 80.8 °F 57.2 °F 45% 29.90 in 7.0 mi West 15.0 mph 20.7 mph N/A   Mostly Cloudy
3:53 PM 82.0 °F 82.0 °F 57.9 °F 44% 29.89 in 10.0 mi West 11.5 mph - N/A   Scattered Clouds
4:53 PM 82.0 °F 81.7 °F 57.0 °F 42% 29.90 in 8.0 mi West 12.7 mph - N/A   Mostly Cloudy
5:53 PM 81.0 °F 81.1 °F 57.9 °F 45% 29.91 in 8.0 mi West 9.2 mph - N/A   Mostly Cloudy
6:53 PM 79.0 °F - 59.0 °F 50% 29.91 in 7.0 mi WSW 9.2 mph - N/A   Mostly Cloudy
7:53 PM 78.1 °F - 59.0 °F 52% 29.91 in 8.0 mi West 10.4 mph - N/A   Mostly Cloudy
8:53 PM 77.0 °F - 57.9 °F 52% 29.93 in 8.0 mi WSW 10.4 mph - N/A   Mostly Cloudy
9:53 PM 75.9 °F - 57.9 °F 54% 29.94 in 10.0 mi West 9.2 mph - N/A   Mostly Cloudy
10:53 PM 75.0 °F - 55.0 °F 50% 29.96 in 10.0 mi WSW 9.2 mph - N/A   Mostly Cloudy
11:53 PM 73.0 °F - 52.0 °F 48% 29.96 in 10.0 mi West 9.2 mph - N/A   Mostly Cloudy